,,Stat6,,Stat2,,Stat8,,Stat9,,Stat10,,Wind1,,Wind1,
time,status,PA1M_AVG,status,PR1M_SUM,status,RH1M_AVG,status,SR1M_AVG,status,TA1M_AVG,status,W1dAve1m,status,W1sAve1m,
2005-07-13, 00:00:00,VALID,919.319,VALID,0,VALID,100,VALID,-0.0169808,VALID,19.662,VALID,244,VALID,0.356831,
2005-07-13, 00:01:00,VALID,919.343,VALID,0,VALID,100,VALID,0.0169808,VALID,19.6717,VALID,258,VALID,0.466146,
2005-07-13, 00:02:00,VALID,919.349,VALID,0,VALID,100,VALID,0,VALID,19.6945,VALID,251,VALID,0.435826,
2005-07-13, 00:03:00,VALID,919.357,VALID,0,VALID,100,VALID,0,VALID,19.6915,VALID,241,VALID,0.707508,
2005-07-13, 00:04:00,VALID,919.354,VALID,0,VALID,100,VALID,0,VALID,19.6948,VALID,245,VALID,0.704545,
2005-07-13, 00:05:00,VALID,919.339,VALID,0,VALID,100,VALID,0,VALID,19.7015,VALID,244,VALID,0.5,
2005-07-13, 00:06:00,VALID,919.333,VALID,0,VALID,100,VALID,0,VALID,19.7141,VALID,244,VALID,0.338956,
2005-07-13, 00:07:00,VALID,919.307,VALID,0,VALID,100,VALID,0,VALID,19.7079,VALID,247,VALID,0.43859,
2005-07-13, 00:08:00,VALID,919.305,VALID,0,VALID,100,VALID,-0.0169808,VALID,19.7107,VALID,250,VALID,0.563834,
2005-07-13, 00:09:00,VALID,919.301,VALID,0,VALID,100,VALID,-0.0169808,VALID,19.7141,VALID,234,VALID,0.575218,
2005-07-13, 00:10:00,VALID,919.293,VALID,0,VALID,100,VALID,0,VALID,19.7109,VALID,233,VALID,0.393864,
2005-07-13, 00:11:00,VALID,919.282,VALID,0,VALID,100,VALID,-0.0169808,VALID,19.7077,VALID,233,VALID,0.258903,
2005-07-13, 00:12:00,VALID,919.286,VALID,0,VALID,100,VALID,-0.0169808,VALID,19.7144,VALID,233,VALID,0.0870808,
2005-07-13, 00:13:00,VALID,919.311,VALID,0,VALID,100,VALID,0.0169808,VALID,19.7204,VALID,233,VALID,0.147104,
2005-07-13, 00:14:00,VALID,919.307,VALID,0,VALID,100,VALID,0,VALID,19.7171,VALID,233,VALID,0.211483,
2005-07-13, 00:15:00,VALID,919.308,VALID,0,VALID,100,VALID,0,VALID,19.7107,VALID,233,VALID,0.266959,
2005-07-13, 00:16:00,VALID,919.313,VALID,0,VALID,100,VALID,0.0169808,VALID,19.7204,VALID,233,VALID,0.0232515,
2005-07-13, 00:17:00,VALID,919.296,VALID,0,VALID,100,VALID,-0.0169808,VALID,19.74,VALID,233,VALID,0,
2005-07-13, 00:18:00,VALID,919.275,VALID,0,VALID,100,VALID,-0.0169808,VALID,19.7467,VALID,233,VALID,0.204397,
2005-07-13, 00:19:00,VALID,919.257,VALID,0,VALID,100,VALID,0,VALID,19.7169,VALID,232,VALID,0.30878,
2005-07-13, 00:20:00,VALID,919.228,VALID,0,VALID,100,VALID,-0.0169808,VALID,19.7273,VALID,232,VALID,0.0303199,
2005-07-13, 00:21:00,VALID,919.214,VALID,0,VALID,100,VALID,-0.0169808,VALID,19.7236,VALID,227,VALID,0.265816,
2005-07-13, 00:22:00,VALID,919.2,VALID,0,VALID,100,VALID,-0.0339617,VALID,19.7109,VALID,219,VALID,0.00674716,
2005-07-13, 00:23:00,VALID,919.168,VALID,0,VALID,100,VALID,0,VALID,19.7174,VALID,219,VALID,0.0647321,
2005-07-13, 00:24:00,VALID,919.168,VALID,0,VALID,100,VALID,0,VALID,19.7045,VALID,219,VALID,0.312314,
2005-07-13, 00:25:00,VALID,919.156,VALID,0,VALID,100,VALID,-0.0339617,VALID,19.7015,VALID,219,VALID,0.0116279,
2005-07-13, 00:26:00,VALID,919.138,VALID,0,VALID,100,VALID,-0.0169808,VALID,19.6784,VALID,218,VALID,0.301491,
2005-07-13, 00:27:00,VALID,919.119,VALID,0,VALID,100,VALID,0,VALID,19.6687,VALID,218,VALID,0.0737645,
2005-07-13, 00:28:00,VALID,919.106,VALID,0,VALID,100,VALID,-0.0169808,VALID,19.6588,VALID,218,VALID,0.196354,
2005-07-13, 00:29:00,VALID,919.09,VALID,0,VALID,100,VALID,-0.0169808,VALID,19.6558,VALID,218,VALID,0.346289,
2005-07-13, 00:30:00,VALID,919.069,VALID,0,VALID,100,VALID,-0.0169808,VALID,19.6602,VALID,218,VALID,0.361151,
2005-07-13, 00:31:00,VALID,919.046,VALID,0,VALID,100,VALID,-0.0169808,VALID,19.6401,VALID,218,VALID,0.191964,
2005-07-13, 00:32:00,VALID,919.013,VALID,0,VALID,100,VALID,0,VALID,19.6431,VALID,218,VALID,0.155297,
2005-07-13, 00:33:00,VALID,918.986,VALID,0,VALID,100,VALID,0,VALID,19.6426,VALID,218,VALID,0.061899,
2005-07-13, 00:34:00,VALID,918.967,VALID,0,VALID,100,VALID,-0.0169808,VALID,19.6625,VALID,218,VALID,0.0770089,
2005-07-13, 00:35:00,VALID,918.938,VALID,0,VALID,100,VALID,-0.0339617,VALID,19.6568,VALID,218,VALID,0.0118886,
2005-07-13, 00:36:00,VALID,918.926,VALID,0,VALID,100,VALID,-0.0509425,VALID,19.6399,VALID,218,VALID,0.00297619,
2005-07-13, 00:37:00,VALID,918.897,VALID,0,VALID,100,VALID,-0.0339617,VALID,19.6401,VALID,218,VALID,0.0261628,
2005-07-13, 00:38:00,VALID,918.863,VALID,0,VALID,100,VALID,-0.0339617,VALID,19.6265,VALID,218,VALID,0.160792,
2005-07-13, 00:39:00,VALID,918.837,VALID,0,VALID,100,VALID,0,VALID,19.6237,VALID,218,VALID,0.364258,
2005-07-13, 00:40:00,VALID,918.819,VALID,0,VALID,100,VALID,0.0339617,VALID,19.6039,VALID,218,VALID,0.248981,
2005-07-13, 00:41:00,VALID,918.812,VALID,0,VALID,100,VALID,0,VALID,19.6081,VALID,218,VALID,0.230097,
2005-07-13, 00:42:00,VALID,918.799,VALID,0,VALID,100,VALID,0,VALID,19.5847,VALID,218,VALID,0.0559896,
2005-07-13, 00:43:00,VALID,918.803,VALID,0,VALID,100,VALID,0.0339617,VALID,19.5818,VALID,218,VALID,0,
2005-07-13, 00:44:00,VALID,918.796,VALID,0,VALID,100,VALID,0,VALID,19.5845,VALID,218,VALID,0,
2005-07-13, 00:45:00,VALID,918.806,VALID,0,VALID,100,VALID,0,VALID,19.5942,VALID,218,VALID,0,
2005-07-13, 00:46:00,VALID,918.806,VALID,0,VALID,100,VALID,0.0339617,VALID,19.6073,VALID,218,VALID,0.0563227,
2005-07-13, 00:47:00,VALID,918.807,VALID,0,VALID,100,VALID,0.0169808,VALID,19.6106,VALID,218,VALID,0.00177557,
2005-07-13, 00:48:00,VALID,918.791,VALID,0,VALID,100,VALID,0.0169808,VALID,19.6265,VALID,218,VALID,0,
2005-07-13, 00:49:00,VALID,918.775,VALID,0,VALID,100,VALID,0,VALID,19.6265,VALID,218,VALID,0,
2005-07-13, 00:50:00,VALID,918.768,VALID,0,VALID,100,VALID,0,VALID,19.6364,VALID,218,VALID,0,
2005-07-13, 00:51:00,VALID,918.76,VALID,0,VALID,100,VALID,0,VALID,19.6364,VALID,218,VALID,0,
2005-07-13, 00:52:00,VALID,918.765,VALID,0,VALID,100,VALID,-0.0169808,VALID,19.6431,VALID,218,VALID,0,
2005-07-13, 00:53:00,VALID,918.764,VALID,0,VALID,100,VALID,0,VALID,19.6133,VALID,218,VALID,0,
2005-07-13, 00:54:00,VALID,918.768,VALID,0,VALID,100,VALID,0,VALID,19.627,VALID,218,VALID,0,
2005-07-13, 00:55:00,VALID,918.771,VALID,0,VALID,100,VALID,-0.0339617,VALID,19.6039,VALID,218,VALID,0,
2005-07-13, 00:56:00,VALID,918.77,VALID,0,VALID,100,VALID,0.0169808,VALID,19.5982,VALID,218,VALID,0,
2005-07-13, 00:57:00,VALID,918.765,VALID,0,VALID,100,VALID,0,VALID,19.5753,VALID,218,VALID,0,
2005-07-13, 00:58:00,VALID,918.758,VALID,0,VALID,100,VALID,0,VALID,19.5589,VALID,218,VALID,0,
2005-07-13, 00:59:00,VALID,918.752,VALID,0,VALID,100,VALID,0,VALID,19.5594,VALID,218,VALID,0,
2005-07-13, 01:00:00,VALID,918.753,VALID,0,VALID,100,VALID,0,VALID,19.5721,VALID,218,VALID,0,
2005-07-13, 01:01:00,VALID,918.765,VALID,0,VALID,100,VALID,0,VALID,19.584,VALID,218,VALID,0.0152699,
2005-07-13, 01:02:01,VALID,918.775,VALID,0,VALID,100,VALID,0,VALID,19.578,VALID,218,VALID,0.381882,
2005-07-13, 01:03:00,VALID,918.788,VALID,0,VALID,100,VALID,0,VALID,19.5624,VALID,218,VALID,0.624653,
2005-07-13, 01:04:00,VALID,918.801,VALID,0,VALID,100,VALID,0.0169808,VALID,19.5361,VALID,172,VALID,0.739281,
2005-07-13, 01:05:00,VALID,918.804,VALID,0,VALID,100,VALID,0,VALID,19.5105,VALID,58,VALID,0.746982,
2005-07-13, 01:06:00,VALID,918.78,VALID,0,VALID,100,VALID,0,VALID,19.4782,VALID,58,VALID,0.683689,
2005-07-13, 01:07:01,VALID,918.78,VALID,0,VALID,100,VALID,0,VALID,19.4625,VALID,57,VALID,0.753729,
2005-07-13, 01:08:00,VALID,918.774,VALID,0,VALID,100,VALID,-0.0169808,VALID,19.4427,VALID,57,VALID,0.821948,
2005-07-13, 01:09:00,VALID,918.74,VALID,0,VALID,100,VALID,-0.0339617,VALID,19.4203,VALID,57,VALID,0.692383,
2005-07-13, 01:10:01,VALID,918.731,VALID,0,VALID,100,VALID,-0.0169808,VALID,19.4037,VALID,57,VALID,0.499238,
2005-07-13, 01:11:00,VALID,918.704,VALID,0,VALID,100,VALID,0,VALID,19.391,VALID,57,VALID,0.457304,
2005-07-13, 01:12:00,VALID,918.69,VALID,0,VALID,100,VALID,0,VALID,19.4203,VALID,57,VALID,0.0398065,
2005-07-13, 01:13:00,VALID,918.672,VALID,0,VALID,100,VALID,0,VALID,19.4166,VALID,57,VALID,0,
2005-07-13, 01:14:00,VALID,918.653,VALID,0,VALID,100,VALID,0,VALID,19.4074,VALID,57,VALID,0,
2005-07-13, 01:15:00,VALID,918.626,VALID,0,VALID,100,VALID,0,VALID,19.3942,VALID,57,VALID,0,
2005-07-13, 01:16:00,VALID,918.623,VALID,0,VALID,100,VALID,0,VALID,19.3808,VALID,57,VALID,0,
2005-07-13, 01:17:00,VALID,918.634,VALID,0,VALID,100,VALID,0.0169808,VALID,19.3684,VALID,57,VALID,0,
2005-07-13, 01:18:00,VALID,918.632,VALID,0,VALID,100,VALID,0,VALID,19.3694,VALID,57,VALID,0.155007,
2005-07-13, 01:19:01,VALID,918.645,VALID,0,VALID,100,VALID,0,VALID,19.3528,VALID,56,VALID,0.575648,
2005-07-13, 01:20:00,VALID,918.643,VALID,0,VALID,100,VALID,0,VALID,19.3329,VALID,40,VALID,0.861793,
2005-07-13, 01:21:00,VALID,918.646,VALID,0,VALID,100,VALID,0,VALID,19.3267,VALID,37,VALID,0.932292,
2005-07-13, 01:22:00,VALID,918.644,VALID,0,VALID,100,VALID,0,VALID,19.2946,VALID,30,VALID,1.00856,
2005-07-13, 01:23:00,VALID,918.637,VALID,0,VALID,100,VALID,-0.0169808,VALID,19.2425,VALID,30,VALID,0.994851,
2005-07-13, 01:24:00,VALID,918.611,VALID,0,VALID,100,VALID,0,VALID,19.2335,VALID,31,VALID,1.12464,
2005-07-13, 01:25:00,VALID,918.599,VALID,0,VALID,100,VALID,0,VALID,19.201,VALID,31,VALID,1.0625,
2005-07-13, 01:26:01,VALID,918.588,VALID,0,VALID,100,VALID,0,VALID,19.1911,VALID,27,VALID,0.998183,
2005-07-13, 01:27:01,VALID,918.554,VALID,0,VALID,100,VALID,0,VALID,19.1851,VALID,27,VALID,0.879179,
2005-07-13, 01:28:00,VALID,918.529,VALID,0,VALID,100,VALID,0,VALID,19.1782,VALID,27,VALID,0.776526,
2005-07-13, 01:29:00,VALID,918.492,VALID,0,VALID,100,VALID,0.0339617,VALID,19.1814,VALID,22,VALID,0.571911,
2005-07-13, 01:30:01,VALID,918.47,VALID,0,VALID,100,VALID,0,VALID,19.1556,VALID,22,VALID,0.674414,
2005-07-13, 01:31:00,VALID,918.442,VALID,0,VALID,100,VALID,0,VALID,19.1722,VALID,20,VALID,0.623857,
2005-07-13, 01:32:01,VALID,918.417,VALID,0,VALID,100,VALID,0.0509425,VALID,19.1913,VALID,16,VALID,0.628299,
2005-07-13, 01:33:00,VALID,918.407,VALID,0,VALID,100,VALID,0,VALID,19.1812,VALID,13,VALID,0.313227,
2005-07-13, 01:34:00,VALID,918.369,VALID,0,VALID,100,VALID,0,VALID,19.2005,VALID,336,VALID,0.726017,
2005-07-13, 01:35:00,VALID,918.349,VALID,0,VALID,100,VALID,0.0169808,VALID,19.2169,VALID,315,VALID,0.364583,
2005-07-13, 01:36:00,VALID,918.335,VALID,0,VALID,100,VALID,0.0169808,VALID,19.2432,VALID,306,VALID,0.352834,
2005-07-13, 01:37:00,VALID,918.317,VALID,0,VALID,100,VALID,-0.0169808,VALID,19.2395,VALID,306,VALID,0.014881,
2005-07-13, 01:38:00,VALID,918.307,VALID,0,VALID,100,VALID,0.0169808,VALID,19.2333,VALID,306,VALID,0.000744048,
2005-07-13, 01:39:00,VALID,918.292,VALID,0,VALID,100,VALID,-0.0169808,VALID,19.2338,VALID,306,VALID,0.000190549,
2005-07-13, 01:40:00,VALID,918.295,VALID,0,VALID,100,VALID,0,VALID,19.2331,VALID,306,VALID,0,
2005-07-13, 01:41:01,VALID,918.279,VALID,0,VALID,100,VALID,0,VALID,19.2398,VALID,306,VALID,0.143483,
2005-07-13, 01:42:00,VALID,918.266,VALID,0,VALID,100,VALID,0.0169808,VALID,19.2628,VALID,319,VALID,0.382813,
2005-07-13, 01:43:00,VALID,918.231,VALID,0,VALID,100,VALID,0.0169808,VALID,19.2591,VALID,2,VALID,0.706854,
2005-07-13, 01:44:01,VALID,918.22,VALID,0,VALID,100,VALID,0,VALID,19.2792,VALID,25,VALID,0.783594,
2005-07-13, 01:45:00,VALID,918.204,VALID,0,VALID,100,VALID,0.0169808,VALID,19.2748,VALID,27,VALID,0.749455,
2005-07-13, 01:46:00,VALID,918.196,VALID,0,VALID,100,VALID,0,VALID,19.2924,VALID,14,VALID,0.629383,
2005-07-13, 01:47:01,VALID,918.187,VALID,0,VALID,100,VALID,-0.0169808,VALID,19.2852,VALID,350,VALID,0.422066,
2005-07-13, 01:48:00,VALID,918.184,VALID,0,VALID,100,VALID,0.0339617,VALID,19.2887,VALID,338,VALID,0.296693,
2005-07-13, 01:49:00,VALID,918.175,VALID,0,VALID,100,VALID,0.0169808,VALID,19.2879,VALID,341,VALID,0.463368,
2005-07-13, 01:50:00,VALID,918.158,VALID,0,VALID,100,VALID,0.0169808,VALID,19.2946,VALID,10,VALID,0.641533,
2005-07-13, 01:51:01,VALID,918.156,VALID,0,VALID,100,VALID,0,VALID,19.3177,VALID,10,VALID,0.358648,
2005-07-13, 01:52:00,VALID,918.142,VALID,0,VALID,100,VALID,0,VALID,19.3076,VALID,352,VALID,0.583519,
2005-07-13, 01:53:00,VALID,918.124,VALID,0,VALID,100,VALID,0.0339617,VALID,19.3108,VALID,334,VALID,0.536086,
2005-07-13, 01:54:00,VALID,918.107,VALID,0,VALID,100,VALID,0.0169808,VALID,19.3172,VALID,356,VALID,0.674479,
2005-07-13, 01:55:00,VALID,918.092,VALID,0,VALID,100,VALID,0.0169808,VALID,19.3145,VALID,294,VALID,0.528832,
2005-07-13, 01:56:01,VALID,918.063,VALID,0,VALID,100,VALID,0.0339617,VALID,19.3242,VALID,335,VALID,0.72433,
2005-07-13, 01:57:00,VALID,918.049,VALID,0,VALID,100,VALID,-0.0509425,VALID,19.3411,VALID,359,VALID,0.366235,
2005-07-13, 01:58:00,VALID,918.031,VALID,0,VALID,100,VALID,-0.0849042,VALID,19.3383,VALID,17,VALID,0.563477,
2005-07-13, 01:59:01,VALID,918.024,VALID,0,VALID,100,VALID,-0.0849042,VALID,19.3445,VALID,12,VALID,0.753018,
2005-07-13, 02:00:00,VALID,918.021,VALID,0,VALID,100,VALID,-0.0849042,VALID,19.3478,VALID,357,VALID,0.877778,
2005-07-13, 02:01:00,VALID,918.04,VALID,0,VALID,100,VALID,-0.101885,VALID,19.3445,VALID,6,VALID,0.841388,
2005-07-13, 02:02:00,VALID,918.038,VALID,0,VALID,100,VALID,-0.101885,VALID,19.3515,VALID,13,VALID,0.813453,
2005-07-13, 02:03:00,VALID,918.046,VALID,0,VALID,100,VALID,-0.0679233,VALID,19.3448,VALID,5,VALID,0.995617,
2005-07-13, 02:04:01,VALID,918.069,VALID,0,VALID,100,VALID,-0.101885,VALID,19.3319,VALID,19,VALID,1.43005,
2005-07-13, 02:05:00,VALID,918.082,VALID,0,VALID,100,VALID,-0.101885,VALID,19.3388,VALID,8,VALID,0.692827,
2005-07-13, 02:06:00,VALID,918.101,VALID,0,VALID,100,VALID,-0.0849042,VALID,19.352,VALID,15,VALID,0.548177,
2005-07-13, 02:07:00,VALID,918.102,VALID,0,VALID,100,VALID,-0.101885,VALID,19.3416,VALID,6,VALID,0.498857,
2005-07-13, 02:08:01,VALID,918.119,VALID,0,VALID,100,VALID,-0.0679233,VALID,19.3351,VALID,345,VALID,0.485647,
2005-07-13, 02:09:00,VALID,918.114,VALID,0,VALID,100,VALID,-0.0679233,VALID,19.3125,VALID,344,VALID,0.201322,
2005-07-13, 02:10:01,VALID,918.086,VALID,0,VALID,100,VALID,-0.0849042,VALID,19.3023,VALID,347,VALID,0.644618,
2005-07-13, 02:11:00,VALID,918.074,VALID,0,VALID,100,VALID,-0.101885,VALID,19.3063,VALID,6,VALID,0.703125,
2005-07-13, 02:12:01,VALID,918.046,VALID,0,VALID,100,VALID,-0.0509425,VALID,19.3023,VALID,3,VALID,0.838796,
2005-07-13, 02:13:01,VALID,918.014,VALID,0,VALID,100,VALID,0.0339617,VALID,19.2949,VALID,343,VALID,0.362805,
2005-07-13, 02:14:01,VALID,917.995,VALID,0,VALID,100,VALID,-0.0169808,VALID,19.2725,VALID,335,VALID,0.382813,
2005-07-13, 02:15:01,VALID,917.979,VALID,0,VALID,100,VALID,0.0169808,VALID,19.2728,VALID,309,VALID,0.454241,
2005-07-13, 02:16:00,VALID,917.966,VALID,0,VALID,100,VALID,0.0339617,VALID,19.2624,VALID,340,VALID,0.443638,
2005-07-13, 02:17:01,VALID,917.935,VALID,0,VALID,100,VALID,0.0169808,VALID,19.2693,VALID,357,VALID,0.635653,
2005-07-13, 02:18:00,VALID,917.912,VALID,0,VALID,100,VALID,0.0169808,VALID,19.2728,VALID,358,VALID,0.55221,
2005-07-13, 02:19:01,VALID,917.898,VALID,0,VALID,100,VALID,0,VALID,19.279,VALID,13,VALID,0.622452,
2005-07-13, 02:20:00,VALID,917.894,VALID,0,VALID,100,VALID,0.0169808,VALID,19.275,VALID,13,VALID,0.243459,
2005-07-13, 02:21:00,VALID,917.864,VALID,0,VALID,100,VALID,0,VALID,19.2785,VALID,13,VALID,0,
2005-07-13, 02:22:00,VALID,917.859,VALID,0,VALID,100,VALID,0.0169808,VALID,19.3048,VALID,13,VALID,0,
2005-07-13, 02:23:00,VALID,917.832,VALID,0,VALID,100,VALID,0,VALID,19.315,VALID,13,VALID,0,
2005-07-13, 02:24:01,VALID,917.819,VALID,0,VALID,100,VALID,0,VALID,19.3118,VALID,13,VALID,0.0689787,
2005-07-13, 02:25:01,VALID,917.816,VALID,0,VALID,100,VALID,0,VALID,19.2984,VALID,13,VALID,0.111662,
2005-07-13, 02:26:00,VALID,917.802,VALID,0,VALID,100,VALID,0,VALID,19.3013,VALID,13,VALID,0.245908,
2005-07-13, 02:27:00,VALID,917.784,VALID,0,VALID,100,VALID,0,VALID,19.3048,VALID,13,VALID,0.31392,
2005-07-13, 02:28:01,VALID,917.765,VALID,0,VALID,100,VALID,0,VALID,19.3011,VALID,13,VALID,0.1875,
2005-07-13, 02:29:00,VALID,917.751,VALID,0,VALID,100,VALID,-0.0169808,VALID,19.315,VALID,13,VALID,0.184482,
2005-07-13, 02:30:00,VALID,917.753,VALID,0,VALID,100,VALID,0,VALID,19.308,VALID,13,VALID,0.149325,
2005-07-13, 02:31:00,VALID,917.758,VALID,0,VALID,100,VALID,0.0169808,VALID,19.3147,VALID,13,VALID,0.256392,
2005-07-13, 02:32:01,VALID,917.778,VALID,0,VALID,100,VALID,-0.0169808,VALID,19.3314,VALID,13,VALID,0.116815,
2005-07-13, 02:33:00,VALID,917.813,VALID,0,VALID,100,VALID,-0.0169808,VALID,19.3247,VALID,13,VALID,0.00177557,
2005-07-13, 02:34:00,VALID,917.842,VALID,0,VALID,100,VALID,0,VALID,19.3306,VALID,13,VALID,0,
2005-07-13, 02:35:01,VALID,917.86,VALID,0,VALID,100,VALID,0,VALID,19.3309,VALID,13,VALID,0,
2005-07-13, 02:36:01,VALID,917.868,VALID,0,VALID,100,VALID,-0.0169808,VALID,19.3277,VALID,13,VALID,0,
2005-07-13, 02:37:01,VALID,917.885,VALID,0,VALID,100,VALID,-0.0169808,VALID,19.3182,VALID,13,VALID,0.106585,
2005-07-13, 02:38:00,VALID,917.885,VALID,0,VALID,100,VALID,0,VALID,19.2857,VALID,13,VALID,0.210175,
2005-07-13, 02:39:01,VALID,917.879,VALID,0,VALID,100,VALID,0.0169808,VALID,19.2695,VALID,1,VALID,0.347124,
2005-07-13, 02:40:00,VALID,917.861,VALID,0,VALID,100,VALID,0,VALID,19.2239,VALID,306,VALID,0.416606,
2005-07-13, 02:41:01,VALID,917.857,VALID,0,VALID,100,VALID,0,VALID,19.2082,VALID,335,VALID,0.357599,
2005-07-13, 02:42:01,VALID,917.852,VALID,0,VALID,100,VALID,0,VALID,19.1856,VALID,5,VALID,0.720238,
2005-07-13, 02:43:00,VALID,917.879,VALID,0,VALID,100,VALID,0.0169808,VALID,19.1429,VALID,353,VALID,0.16183,
2005-07-13, 02:44:01,VALID,917.898,VALID,0,VALID,100,VALID,0,VALID,19.1109,VALID,8,VALID,0.317894,
2005-07-13, 02:45:01,VALID,917.924,VALID,0,VALID,100,VALID,0,VALID,19.0979,VALID,9,VALID,0.0247713,
2005-07-13, 02:46:01,VALID,917.926,VALID,0,VALID,100,VALID,0,VALID,19.0952,VALID,9,VALID,0.334263,
2005-07-13, 02:47:00,VALID,917.932,VALID,0,VALID,100,VALID,0,VALID,19.0853,VALID,9,VALID,0.487424,
2005-07-13, 02:48:01,VALID,917.926,VALID,0,VALID,100,VALID,0,VALID,19.059,VALID,340,VALID,0.730824,
2005-07-13, 02:49:01,VALID,917.915,VALID,0,VALID,100,VALID,0,VALID,19.0205,VALID,10,VALID,0.70653,
2005-07-13, 02:50:01,VALID,917.91,VALID,0,VALID,100,VALID,0.0169808,VALID,19.0177,VALID,6,VALID,0.235647,
2005-07-13, 02:51:00,VALID,917.895,VALID,0,VALID,100,VALID,0,VALID,19.0142,VALID,6,VALID,0.0914634,
2005-07-13, 02:52:01,VALID,917.887,VALID,0,VALID,100,VALID,0,VALID,19.0071,VALID,4,VALID,0.313281,
2005-07-13, 02:53:00,VALID,917.891,VALID,0,VALID,100,VALID,-0.0169808,VALID,19.0083,VALID,4,VALID,0.325586,
2005-07-13, 02:54:01,VALID,917.875,VALID,0,VALID,100,VALID,0.0169808,VALID,18.9882,VALID,4,VALID,0.1625,
2005-07-13, 02:55:01,VALID,917.858,VALID,0,VALID,100,VALID,0.0339617,VALID,18.9815,VALID,4,VALID,0.0726563,
2005-07-13, 02:56:01,VALID,917.86,VALID,0,VALID,100,VALID,0,VALID,18.9783,VALID,4,VALID,0.126999,
2005-07-13, 02:57:01,VALID,917.873,VALID,0,VALID,100,VALID,0,VALID,18.982,VALID,4,VALID,0.145894,
2005-07-13, 02:58:01,VALID,917.886,VALID,0,VALID,100,VALID,-0.0169808,VALID,18.9723,VALID,4,VALID,0.0508765,
2005-07-13, 02:59:01,VALID,917.908,VALID,0,VALID,100,VALID,0.0169808,VALID,18.9497,VALID,4,VALID,0.397294,
2005-07-13, 03:00:01,VALID,917.916,VALID,0,VALID,100,VALID,0,VALID,18.9499,VALID,5,VALID,0.568004,
2005-07-13, 03:01:01,VALID,917.916,VALID,0,VALID,100,VALID,0.0169808,VALID,18.9564,VALID,8,VALID,0.801136,
2005-07-13, 03:02:01,VALID,917.924,VALID,0,VALID,100,VALID,-0.0339617,VALID,18.9564,VALID,19,VALID,0.804688,
2005-07-13, 03:03:01,VALID,917.929,VALID,0,VALID,100,VALID,0,VALID,18.943,VALID,23,VALID,0.977951,
2005-07-13, 03:04:01,VALID,917.937,VALID,0,VALID,100,VALID,0,VALID,18.943,VALID,24,VALID,0.946501,
2005-07-13, 03:05:01,VALID,917.926,VALID,0,VALID,100,VALID,0,VALID,18.9598,VALID,2,VALID,0.820122,
2005-07-13, 03:06:01,VALID,917.93,VALID,0,VALID,100,VALID,0,VALID,18.9467,VALID,3,VALID,0.759673,
2005-07-13, 03:07:01,VALID,917.935,VALID,0,VALID,100,VALID,-0.0169808,VALID,18.9301,VALID,4,VALID,0.66915,
2005-07-13, 03:08:01,VALID,917.933,VALID,0,VALID,100,VALID,-0.0169808,VALID,18.9405,VALID,6,VALID,0.718576,
2005-07-13, 03:09:01,VALID,917.926,VALID,0,VALID,100,VALID,-0.0169808,VALID,18.9338,VALID,15,VALID,0.735973,
2005-07-13, 03:10:01,VALID,917.937,VALID,0,VALID,100,VALID,0,VALID,18.9335,VALID,17,VALID,0.727471,
2005-07-13, 03:11:01,VALID,917.945,VALID,0,VALID,100,VALID,0,VALID,18.937,VALID,18,VALID,0.344082,
2005-07-13, 03:12:01,VALID,917.956,VALID,0,VALID,100,VALID,0,VALID,18.9405,VALID,9,VALID,0.432776,
2005-07-13, 03:13:01,VALID,917.952,VALID,0,VALID,100,VALID,0,VALID,18.9211,VALID,353,VALID,0.45419,
2005-07-13, 03:14:01,VALID,917.952,VALID,0,VALID,100,VALID,0,VALID,18.9308,VALID,352,VALID,0.0299479,
2005-07-13, 03:15:01,VALID,917.97,VALID,0,VALID,100,VALID,-0.0169808,VALID,18.9412,VALID,352,VALID,0.000190549,
2005-07-13, 03:16:01,VALID,917.98,VALID,0,VALID,100,VALID,-0.0169808,VALID,18.9504,VALID,6,VALID,0.585751,
2005-07-13, 03:17:01,VALID,917.999,VALID,0,VALID,100,VALID,0,VALID,18.9338,VALID,31,VALID,0.63548,
2005-07-13, 03:18:01,VALID,918.018,VALID,0,VALID,99.9372,VALID,0,VALID,18.9278,VALID,32,VALID,0.591427,
2005-07-13, 03:19:01,VALID,918.044,VALID,0,VALID,99.8464,VALID,0,VALID,18.9144,VALID,34,VALID,0.990885,
2005-07-13, 03:20:01,VALID,918.055,VALID,0,VALID,99.7688,VALID,0.0169808,VALID,18.937,VALID,27,VALID,0.892857,
2005-07-13, 03:21:01,VALID,918.071,VALID,0,VALID,99.6556,VALID,0,VALID,18.9566,VALID,21,VALID,0.909446,
2005-07-13, 03:22:01,VALID,918.058,VALID,0,VALID,99.545,VALID,0.0169808,VALID,18.9626,VALID,22,VALID,1.01804,
2005-07-13, 03:23:01,VALID,918.033,VALID,0,VALID,99.4128,VALID,0,VALID,18.9596,VALID,22,VALID,1.269,
2005-07-13, 03:24:01,VALID,918.014,VALID,0,VALID,99.3517,VALID,0,VALID,18.9531,VALID,17,VALID,1.29018,
2005-07-13, 03:25:01,VALID,917.994,VALID,0,VALID,99.3416,VALID,0,VALID,18.9469,VALID,14,VALID,1.11628,
2005-07-13, 03:26:01,VALID,917.977,VALID,0,VALID,99.3174,VALID,0,VALID,18.9439,VALID,9,VALID,1.24414,
2005-07-13, 03:27:01,VALID,917.964,VALID,0,VALID,99.2157,VALID,0,VALID,18.9504,VALID,8,VALID,1.34127,
2005-07-13, 03:28:01,VALID,917.958,VALID,0,VALID,99.0478,VALID,-0.0339617,VALID,18.9631,VALID,10,VALID,1.19513,
2005-07-13, 03:29:01,VALID,917.96,VALID,0,VALID,98.9029,VALID,-0.0169808,VALID,18.9695,VALID,9,VALID,0.986683,
2005-07-13, 03:30:01,VALID,917.937,VALID,0,VALID,98.8151,VALID,-0.0169808,VALID,18.9827,VALID,9,VALID,0.716751,
2005-07-13, 03:31:01,VALID,917.943,VALID,0,VALID,98.7795,VALID,0,VALID,18.9767,VALID,8,VALID,0.659961,
2005-07-13, 03:32:00,VALID,917.932,VALID,0,VALID,98.6524,VALID,-0.0169808,VALID,18.9504,VALID,358,VALID,0.860491,
2005-07-13, 03:33:00,VALID,917.935,VALID,0,VALID,98.5468,VALID,0,VALID,18.9765,VALID,12,VALID,1.06938,
2005-07-13, 03:34:00,VALID,917.939,VALID,0,VALID,98.4158,VALID,-0.0169808,VALID,18.9857,VALID,360,VALID,0.918341,
2005-07-13, 03:35:00,VALID,917.93,VALID,0,VALID,98.295,VALID,0,VALID,18.9702,VALID,353,VALID,0.433498,
2005-07-13, 03:36:00,VALID,917.948,VALID,0,VALID,98.173,VALID,0,VALID,18.964,VALID,351,VALID,0.0257241,
2005-07-13, 03:37:00,VALID,917.935,VALID,0,VALID,98.0839,VALID,0,VALID,18.9601,VALID,351,VALID,0.188988,
2005-07-13, 03:38:00,VALID,917.945,VALID,0,VALID,98.1106,VALID,-0.0169808,VALID,18.9405,VALID,348,VALID,0.484747,
2005-07-13, 03:39:00,VALID,917.935,VALID,0,VALID,98.0623,VALID,0,VALID,18.9536,VALID,345,VALID,0.566746,
2005-07-13, 03:40:00,VALID,917.944,VALID,0,VALID,98.042,VALID,0,VALID,18.9338,VALID,347,VALID,0.287157,
2005-07-13, 03:41:00,VALID,917.939,VALID,0,VALID,98.0483,VALID,0,VALID,18.9246,VALID,347,VALID,0.0237772,
2005-07-13, 03:42:00,VALID,917.934,VALID,0,VALID,98.1679,VALID,0,VALID,18.9117,VALID,355,VALID,0.481399,
2005-07-13, 03:43:00,VALID,917.924,VALID,0,VALID,98.1285,VALID,0.0339617,VALID,18.9114,VALID,346,VALID,0.884993,
2005-07-13, 03:44:00,VALID,917.912,VALID,0,VALID,98.0522,VALID,0,VALID,18.9248,VALID,342,VALID,0.617759,
2005-07-13, 03:45:00,VALID,917.89,VALID,0,VALID,98.0649,VALID,0,VALID,18.9243,VALID,343,VALID,0.490473,
2005-07-13, 03:46:00,VALID,917.887,VALID,0,VALID,98.1908,VALID,0,VALID,18.9313,VALID,359,VALID,0.719308,